JH4GLG-13 Weather Reports


Display with metric or nautical units.
time (UTC)temp
F
wind
direction
speed
MPH
gust
MPH
rain 1hr
in
rain 24hr
in
rain mn
in
humidity
%
barometer
mb
20260507015700 78 0 0.0 0.0 0.00 0.00 0.00 57 1014.2
20260507014146 79 0 0.0 0.0 0.00 0.00 0.00 54 1014.3
20260507012647 79 0 0.0 0.0 0.00 0.00 0.00 57 1014.4
20260507011145 79 0 0.0 0.0 0.00 0.00 0.00 54 1014.8
20260507005646 80 0 0.0 0.0 0.00 0.00 0.00 56 1015.0
20260507004145 78 0 0.0 0.0 0.00 0.00 0.00 57 1015.2
20260507002646 75 0 0.0 0.0 0.00 0.00 0.00 62 1015.3
20260507001145 75 0 0.0 0.0 0.00 0.00 0.00 62 1015.5
20260506235727 73 0 0.0 0.0 0.00 0.00 0.00 66 1015.6
20260506235646 73 0 0.0 0.0 0.00 0.00 0.00 66 1015.6
20260506234145 71 0 0.0 0.0 0.00 0.00 0.00 68 1015.7
20260506232728 70 0 0.0 0.0 0.00 0.00 0.00 70 1015.8
20260506232646 70 0 0.0 0.0 0.00 0.00 0.00 70 1015.8
20260506231144 70 0 0.0 0.0 0.00 0.00 0.00 70 1015.9
20260506225646 69 0 0.0 0.0 0.00 0.00 0.00 71 1016.2
20260506224144 67 0 0.0 0.0 0.00 0.00 0.00 75 1016.4
20260506222645 66 0 0.0 0.0 0.00 0.00 0.00 77 1016.3
20260506221144 64 0 0.0 0.0 0.00 0.00 0.00 79 1016.3
20260506215645 64 0 0.0 0.0 0.00 0.00 0.00 81 1016.2
20260506214144 62 0 0.0 0.0 0.00 0.00 0.00 85 1016.5
20260506212645 60 0 0.0 0.0 0.00 0.00 0.00 87 1016.4
20260506211144 59 0 0.0 0.0 0.00 0.00 0.00 90 1016.5
20260506205645 58 0 0.0 0.0 0.00 0.00 0.00 93 1016.4
20260506204143 57 0 0.0 0.0 0.00 0.00 0.00 93 1016.3
20260506202645 57 0 0.0 0.0 0.00 0.00 0.00 93 1016.1
20260506201143 57 0 0.0 0.0 0.00 0.00 0.00 94 1016.1
20260506195644 57 0 0.0 0.0 0.00 0.00 0.00 93 1016.0
20260506194143 56 0 0.0 0.0 0.00 0.00 0.00 96 1016.1
20260506192644 56 0 0.0 0.0 0.00 0.00 0.00 94 1016.2
20260506191142 0 0 0.0 0.0 0.00 0.00 0.00 1016.3
20260506185644 56 0 0.0 0.0 0.00 0.00 0.00 94 1016.3
20260506184143 58 0 0.0 0.0 0.00 0.00 0.00 89 1016.2
20260506182643 58 0 0.0 0.0 0.00 0.00 0.00 89 1016.3
20260506181142 58 0 0.0 0.0 0.00 0.00 0.00 89 1016.3
20260506175644 58 0 0.0 0.0 0.00 0.00 0.00 89 1016.4
20260506174143 58 0 0.0 0.0 0.00 0.00 0.00 89 1016.6
20260506172644 59 0 0.0 0.0 0.00 0.00 0.00 89 1016.5
20260506171142 59 0 0.0 0.0 0.00 0.00 0.00 88 1016.7
20260506165643 59 0 0.0 0.0 0.00 0.00 0.00 88 1016.8
20260506164142 59 0 0.0 0.0 0.00 0.00 0.00 89 1016.8
20260506162642 59 0 0.0 0.0 0.00 0.00 0.00 88 1016.9
20260506161142 60 0 0.0 0.0 0.00 0.00 0.00 87 1017.0
20260506155643 60 0 0.0 0.0 0.00 0.00 0.00 88 1017.1
20260506154142 60 0 0.0 0.0 0.00 0.00 0.00 87 1017.2
20260506152642 60 0 0.0 0.0 0.00 0.00 0.00 87 1017.3
20260506151141 60 0 0.0 0.0 0.00 0.00 0.00 87 1017.5
20260506145643 61 0 0.0 0.0 0.00 0.00 0.00 86 1017.6
20260506144141 61 0 0.0 0.0 0.00 0.00 0.00 85 1017.8
20260506142642 61 0 0.0 0.0 0.00 0.00 0.00 85 1017.9
20260506141140 62 0 0.0 0.0 0.00 0.00 0.00 85 1017.7
20260506135641 62 0 0.0 0.0 0.00 0.00 0.00 84 1017.8
20260506134140 62 0 0.0 0.0 0.00 0.00 0.00 83 1017.8
20260506132726 62 0 0.0 0.0 0.00 0.00 0.00 83 1017.8
20260506132642 62 0 0.0 0.0 0.00 0.00 0.00 83 1017.8
20260506131141 63 0 0.0 0.0 0.00 0.00 0.00 83 1017.6
20260506125643 63 0 0.0 0.0 0.00 0.00 0.00 83 1017.6
20260506124140 63 0 0.0 0.0 0.00 0.00 0.00 81 1017.6
20260506122641 64 0 0.0 0.0 0.00 0.00 0.00 81 1017.5
20260506121139 64 0 0.0 0.0 0.00 0.00 0.00 80 1017.5
20260506115641 65 0 0.0 0.0 0.00 0.00 0.00 80 1017.2
20260506114140 65 0 0.0 0.0 0.00 0.00 0.00 80 1017.4
20260506112641 66 0 0.0 0.0 0.00 0.00 0.00 79 1017.2
20260506111140 66 0 0.0 0.0 0.00 0.00 0.00 79 1017.3
20260506105641 66 0 0.0 0.0 0.00 0.00 0.00 77 1017.1
20260506104140 66 0 0.0 0.0 0.00 0.00 0.00 75 1017.1
20260506102640 66 0 0.0 0.0 0.00 0.00 0.00 75 1017.0
20260506101138 67 0 0.0 0.0 0.00 0.00 0.00 74 1016.9
20260506095639 67 0 0.0 0.0 0.00 0.00 0.00 73 1017.1
20260506094138 68 0 0.0 0.0 0.00 0.00 0.00 70 1017.0
20260506092712 68 0 0.0 0.0 0.00 0.00 0.00 69 1017.1
20260506092639 68 0 0.0 0.0 0.00 0.00 0.00 69 1017.1
20260506091138 70 0 0.0 0.0 0.00 0.00 0.00 67 1017.0
20260506085715 70 0 0.0 0.0 0.00 0.00 0.00 66 1017.0
20260506085639 70 0 0.0 0.0 0.00 0.00 0.00 66 1017.0
20260506084138 70 0 0.0 0.0 0.00 0.00 0.00 65 1017.0
20260506082639 71 0 0.0 0.0 0.00 0.00 0.00 64 1017.0
20260506081138 71 0 0.0 0.0 0.00 0.00 0.00 64 1017.0
20260506072639 72 0 0.0 0.0 0.00 0.00 0.00 60 1017.1
20260506071138 73 0 0.0 0.0 0.00 0.00 0.00 59 1017.0
20260506061137 75 0 0.0 0.0 0.00 0.00 0.00 56 1017.5
20260506051137 74 0 0.0 0.0 0.00 0.00 0.00 55 1017.9
20260506044137 74 0 0.0 0.0 0.00 0.00 0.00 58 1017.9
20260506042638 0 0 0.0 0.0 0.00 0.00 0.00 1018.3
20260506041136 75 0 0.0 0.0 0.00 0.00 0.00 57 1018.7
20260506035638 75 0 0.0 0.0 0.00 0.00 0.00 54 1018.7
20260506034135 76 0 0.0 0.0 0.00 0.00 0.00 51 1018.8
20260506032637 77 0 0.0 0.0 0.00 0.00 0.00 50 1019.2
20260506031136 77 0 0.0 0.0 0.00 0.00 0.00 48 1019.4
20260506025639 77 0 0.0 0.0 0.00 0.00 0.00 49 1019.4
20260506024138 76 0 0.0 0.0 0.00 0.00 0.00 48 1019.8
20260506022636 0 0 0.0 0.0 0.00 0.00 0.00 1019.7
20260506021135 74 0 0.0 0.0 0.00 0.00 0.00 52 1019.9